Location: Bottenau
(48.5138°N, 8.0462°E)
Time: 09:45:58
(UTC+00:00)

Spot 2 Rocket - Pass Details

Date: 18 April 2021
Orbit: 756 x 773 km, 98.5° (Epoch: 05 May)

Event Time Altitude Azimuth Distance (km) Brightness Sun altitude
Exits shadow 21:21:43 31° 219° (SW) 1,328 4.5 -24.2°
Maximum altitude 21:23:26 41° 262° (W) 1,109 4.4 -24.4°
Drops below altitude 10° 21:28:15 10° 332° (NNW) 2,312 7.0 -24.8°
Sets 21:30:41 0° 340° (NNW) 3,240 8.0 -25.0°
